Gustavus, AK

3:41 PM AKST on January 21, 2017 (GMT -0900)
Gustavus

Weather History for PAGS - April, 2014

Change the Weather History Date:

Wednesday, April 2, 2014

  Actual Average Record
Temperature  
Mean Temperature 37 °F -  
Max Temperature 46 °F 44 °F 56 °F (1958)
Min Temperature 28 °F 31 °F 14 °F (2002)
Degree Days  
Heating Degree Days 28    
Moisture  
Dew Point 26 °F    
Average Humidity 66    
Maximum Humidity 93    
Minimum Humidity 43    
Precipitation  
Precipitation 0.00 in - - ()
Sea Level Pressure  
Sea Level Pressure 29.80 in    
Wind  
Wind Speed 3 mph (NW)    
Max Wind Speed 12 mph    
Max Gust Speed -    
Visibility 10 miles    
Events      
Averages and records for this station are not official NWS values.
T = Trace of Precipitation, MM = Missing Value Source: NWS Daily Summary

Daily Weather History Graph

Daily Weather History Graph

Search for Another Location

Airport or City:

Trip Planner

Search our weather history database for the weather conditions in past years. The results will help you decide how hot, cold, wet, or windy it might be!

Date:

Astronomy

Apr. 02, 2014 Rise Set
Actual Time 6:26 AM AKDT 7:47 PM AKDT
Civil Twilight 5:45 AM AKDT 8:28 PM AKDT
Nautical Twilight 4:55 AM AKDT 9:19 PM AKDT
Astronomical Twilight 3:57 AM AKDT 10:18 PM AKDT
Moon 7:39 AM AKDT (4/2) No Moon Set
Length of Visible Light 14h 42m
Length of Day
13h 20m
Waxing Crescent, 11% of the Moon is Illuminated
Apr 2
Waxing Crescent
Apr 7
First Quarter
Apr 14
Full
Apr 21
Last Quarter
Apr 28
New

Hourly Weather History & Observations

Time (AKDT) Temp. Windchill Dew Point Humidity Pressure Visibility Wind Dir Wind Speed Gust Speed Precip Events Conditions
12:16 AM 28.4 °F - 26.6 °F 93% 29.90 in 10.0 mi Calm Calm - N/A   Partly Cloudy
12:36 AM 28.4 °F - 26.6 °F 93% 29.90 in 10.0 mi Calm Calm - N/A   Mostly Cloudy
12:56 AM 28.4 °F - 26.6 °F 93% 29.90 in 10.0 mi Calm Calm - N/A   Overcast
1:16 AM 28.4 °F 24.6 °F 26.6 °F 93% 29.90 in 10.0 mi NNW 3.5 mph - N/A   Overcast
1:36 AM 28.4 °F 24.6 °F 26.6 °F 93% 29.90 in 10.0 mi NNW 3.5 mph - N/A   Overcast
1:56 AM 30.2 °F - 28.4 °F 93% 29.90 in 10.0 mi Calm Calm - N/A   Overcast
2:16 AM 30.2 °F - 28.4 °F 93% 29.89 in 10.0 mi Calm Calm - N/A   Overcast
2:36 AM 30.2 °F - 26.6 °F 86% 29.89 in 10.0 mi Calm Calm - N/A   Overcast
2:56 AM 30.2 °F - 26.6 °F 86% 29.89 in 10.0 mi Calm Calm - N/A   Overcast
3:16 AM 30.2 °F 26.7 °F 28.4 °F 93% 29.89 in 10.0 mi North 3.5 mph - N/A   Overcast
4:56 AM 30.2 °F - 26.6 °F 86% 29.88 in 10.0 mi Calm Calm - N/A   Overcast
5:16 AM 30.2 °F - 28.4 °F 93% 29.88 in 10.0 mi Calm Calm - N/A   Overcast
5:36 AM 30.2 °F - 26.6 °F 86% 29.88 in 10.0 mi Calm Calm - N/A   Overcast
5:56 AM 30.2 °F - 26.6 °F 86% 29.87 in 10.0 mi Calm Calm - N/A   Overcast
6:16 AM 30.2 °F - 28.4 °F 93% 29.87 in 10.0 mi Calm Calm - N/A   Overcast
6:36 AM 30.2 °F - 26.6 °F 86% 29.87 in 10.0 mi Calm Calm - N/A   Overcast
6:56 AM 30.2 °F - 26.6 °F 86% 29.87 in 10.0 mi Calm Calm - N/A   Overcast
7:16 AM 30.2 °F - 26.6 °F 86% 29.87 in 10.0 mi Calm Calm - N/A   Overcast
7:36 AM 30.2 °F 25.4 °F 26.6 °F 86% 29.86 in 10.0 mi NW 4.6 mph - N/A   Overcast
7:56 AM 32.0 °F 28.7 °F 28.4 °F 87% 29.86 in 10.0 mi North 3.5 mph - N/A   Overcast
8:16 AM 33.8 °F - 28.4 °F 81% 29.86 in 10.0 mi Calm Calm - N/A   Overcast
8:36 AM 35.6 °F - 28.4 °F 75% 29.86 in 10.0 mi Calm Calm - N/A   Overcast
8:56 AM 37.4 °F 32.1 °F 28.4 °F 70% 29.86 in 10.0 mi NNW 6.9 mph - N/A   Overcast
9:16 AM 37.4 °F 32.1 °F 28.4 °F 70% 29.85 in 10.0 mi NNW 6.9 mph - N/A   Overcast
9:56 AM 39.2 °F 34.2 °F 28.4 °F 65% 29.85 in 10.0 mi NNW 6.9 mph - N/A   Overcast
10:16 AM 41.0 °F 38.0 °F 28.4 °F 61% 29.85 in 10.0 mi NNW 4.6 mph - N/A   Mostly Cloudy
10:36 AM 42.8 °F - 28.4 °F 57% 29.84 in 10.0 mi Calm Calm - N/A   Mostly Cloudy
10:56 AM 42.8 °F 40.1 °F 28.4 °F 57% 29.84 in 10.0 mi North 4.6 mph - N/A   Overcast
11:16 AM 44.6 °F 43.1 °F 26.6 °F 49% 29.83 in 10.0 mi SSW 3.5 mph - N/A   Scattered Clouds
11:36 AM 44.6 °F - 26.6 °F 49% 29.83 in 10.0 mi Calm Calm - N/A   Mostly Cloudy
11:56 AM 44.6 °F 43.1 °F 26.6 °F 49% 29.82 in 10.0 mi South 3.5 mph - N/A   Overcast
12:16 PM 44.6 °F 41.4 °F 26.6 °F 49% 29.82 in 10.0 mi West 5.8 mph - N/A   Overcast
12:36 PM 44.6 °F 40.2 °F 26.6 °F 49% 29.81 in 10.0 mi NW 8.1 mph - N/A   Overcast
12:56 PM 44.6 °F 42.2 °F 24.8 °F 46% 29.81 in 10.0 mi NW 4.6 mph - N/A   Overcast
1:16 PM 44.6 °F 43.1 °F 24.8 °F 46% 29.81 in 10.0 mi NW 3.5 mph - N/A   Overcast
1:36 PM 44.6 °F 39.7 °F 24.8 °F 46% 29.80 in 10.0 mi NW 9.2 mph - N/A   Overcast
1:56 PM 44.6 °F 39.7 °F 24.8 °F 46% 29.80 in 10.0 mi NW 9.2 mph - N/A   Overcast
2:16 PM 44.6 °F 38.8 °F 24.8 °F 46% 29.79 in 10.0 mi NNW 11.5 mph - N/A   Overcast
2:36 PM 44.6 °F 39.7 °F 24.8 °F 46% 29.79 in 10.0 mi NW 9.2 mph - N/A   Overcast
2:56 PM 44.6 °F 39.7 °F 24.8 °F 46% 29.78 in 10.0 mi NW 9.2 mph - N/A   Overcast
3:16 PM 44.6 °F 43.1 °F 24.8 °F 46% 29.77 in 10.0 mi WNW 3.5 mph - N/A   Overcast
3:36 PM 46.4 °F 41.5 °F 24.8 °F 43% 29.77 in 10.0 mi West 10.4 mph - N/A   Mostly Cloudy
3:56 PM 44.6 °F 40.2 °F 24.8 °F 46% 29.76 in 10.0 mi WNW 8.1 mph - N/A   Mostly Cloudy
4:16 PM 44.6 °F 40.2 °F 24.8 °F 46% 29.76 in 10.0 mi WNW 8.1 mph - N/A   Mostly Cloudy
4:36 PM 44.6 °F 39.7 °F 24.8 °F 46% 29.75 in 10.0 mi NW 9.2 mph - N/A   Overcast
4:56 PM 44.6 °F 39.2 °F 24.8 °F 46% 29.75 in 10.0 mi NW 10.4 mph - N/A   Mostly Cloudy
5:36 PM 44.6 °F 40.7 °F 24.8 °F 46% 29.74 in 10.0 mi WNW 6.9 mph - N/A   Mostly Cloudy
5:56 PM 44.6 °F 39.2 °F 24.8 °F 46% 29.74 in 10.0 mi NW 10.4 mph - N/A   Overcast
6:16 PM 44.6 °F 41.4 °F 24.8 °F 46% 29.73 in 10.0 mi NW 5.8 mph - N/A   Mostly Cloudy
6:36 PM 44.6 °F 40.7 °F 24.8 °F 46% 29.73 in 10.0 mi NW 6.9 mph - N/A   Mostly Cloudy
6:56 PM 42.8 °F 37.5 °F 24.8 °F 49% 29.73 in 10.0 mi NW 9.2 mph - N/A   Overcast
7:16 PM 42.8 °F 37.5 °F 24.8 °F 49% 29.73 in 10.0 mi NW 9.2 mph - N/A   Overcast
7:36 PM 41.0 °F 37.1 °F 24.8 °F 53% 29.73 in 10.0 mi NW 5.8 mph - N/A   Overcast
7:56 PM 39.2 °F 33.6 °F 24.8 °F 56% 29.72 in 10.0 mi NNW 8.1 mph - N/A   Overcast
8:16 PM 39.2 °F 34.2 °F 24.8 °F 56% 29.72 in 10.0 mi NNW 6.9 mph - N/A   Overcast
8:36 PM 39.2 °F 35.9 °F 24.8 °F 56% 29.72 in 10.0 mi NNW 4.6 mph - N/A   Mostly Cloudy
8:56 PM 37.4 °F 34.9 °F 24.8 °F 60% 29.72 in 10.0 mi NNW 3.5 mph - N/A   Partly Cloudy
9:16 PM 37.4 °F - 24.8 °F 60% 29.71 in 10.0 mi Calm Calm - N/A   Clear
9:36 PM 35.6 °F - 24.8 °F 65% 29.71 in 10.0 mi Calm Calm - N/A   Clear
9:56 PM 35.6 °F 32.8 °F 24.8 °F 65% 29.71 in 10.0 mi NNW 3.5 mph - N/A   Clear
10:16 PM 33.8 °F - 24.8 °F 70% 29.71 in 10.0 mi Calm Calm - N/A   Clear
10:36 PM 33.8 °F 30.8 °F 24.8 °F 70% 29.71 in 10.0 mi North 3.5 mph - N/A   Clear
10:56 PM 33.8 °F 30.8 °F 26.6 °F 75% 29.70 in 10.0 mi NNW 3.5 mph - N/A   Clear
11:16 PM 32.0 °F 28.7 °F 24.8 °F 75% 29.70 in 10.0 mi NNW 3.5 mph - N/A   Clear
11:36 PM 32.0 °F 28.7 °F 24.8 °F 75% 29.70 in 10.0 mi NNW 3.5 mph - N/A   Clear
11:56 PM 32.0 °F 28.7 °F 24.8 °F 75% 29.70 in 10.0 mi NNW 3.5 mph - N/A   Clear